When you browse on this site, cookies collect data to enhance your experience and personalize the content and advertising you see.
Visit our Privacy Policy to learn more. By continuing to use the site, you agree to this use of cookies and data.
  • In Österreich
  • Länderverzeichnis
  • Für 7 Tage
  • Wassertemperatur
  • Satellitenkarten
  • Wetterkarte
  • News
  • Widgets
  • user-avatar
    Anmelden

    Stündliche Wetter Osaka

    Heute, 19 April, Freitag

    Zeit Temperatur Niederschläge Wind Luftdruck Luftfeuchtigkeit
    00:00 +18°C° 0 mm 2 m/S 760 mmHg 58%
    01:00 +18°C° 0 mm 2 m/S 759 mmHg 62%
    02:00 +17°C° 0 mm 2 m/S 759 mmHg 65%
    03:00 +17°C° 0 mm 2 m/S 759 mmHg 68%
    04:00 +18°C° 0 mm 1 m/S 760 mmHg 71%
    05:00 +18°C° 0 mm 1 m/S 760 mmHg 74%
    06:00 +18°C° 0 mm 1 m/S 760 mmHg 77%
    07:00 +19°C° 0 mm 1 m/S 760 mmHg 71%
    08:00 +20°C° 0 mm 1 m/S 760 mmHg 65%
    09:00 +22°C° 0 mm 1 m/S 760 mmHg 59%
    10:00 +21°C° 0 mm 2 m/S 760 mmHg 55%
    11:00 +23°C° 0 mm 2 m/S 760 mmHg 50%
    12:00 +24°C° 0 mm 2 m/S 760 mmHg 46%
    13:00 +22°C° 0 mm 3 m/S 760 mmHg 48%
    14:00 +22°C° 0 mm 3 m/S 760 mmHg 51%
    15:00 +21°C° 0 mm 4 m/S 759 mmHg 53%
    16:00 +20°C° 0 mm 4 m/S 760 mmHg 54%
    17:00 +19°C° 0 mm 4 m/S 760 mmHg 56%
    18:00 +16°C° 0 mm 5 m/S 760 mmHg 57%
    19:00 +15°C° 0 mm 4 m/S 760 mmHg 57%
    20:00 +16°C° 0 mm 3 m/S 761 mmHg 57%
    21:00 +14°C° 0 mm 3 m/S 761 mmHg 58%
    22:00 +13°C° 0 mm 3 m/S 761 mmHg 57%
    23:00 +13°C° 0 mm 3 m/S 761 mmHg 57%

    Morgen, 20 April, Samstag

    Zeit Temperatur Niederschläge Wind Luftdruck Luftfeuchtigkeit
    00:00 +12°C° 0 mm 3 m/S 762 mmHg 56%
    01:00 +13°C° 0 mm 2 m/S 762 mmHg 57%
    02:00 +12°C° 0 mm 2 m/S 762 mmHg 58%
    03:00 +12°C° 0 mm 2 m/S 762 mmHg 59%
    04:00 +12°C° 0 mm 2 m/S 762 mmHg 59%
    05:00 +10°C° 0 mm 2 m/S 762 mmHg 59%
    06:00 +11°C° 0 mm 1 m/S 762 mmHg 59%
    07:00 +13°C° 0 mm 2 m/S 762 mmHg 50%
    08:00 +14°C° 0 mm 2 m/S 762 mmHg 42%
    09:00 +16°C° 0 mm 2 m/S 762 mmHg 33%
    10:00 +18°C° 0 mm 2 m/S 762 mmHg 28%
    11:00 +21°C° 0 mm 1 m/S 762 mmHg 22%
    12:00 +23°C° 0 mm 1 m/S 762 mmHg 17%
    13:00 +24°C° 0 mm 1 m/S 761 mmHg 15%
    14:00 +25°C° 0 mm 1 m/S 761 mmHg 13%
    15:00 +26°C° 0 mm 1 m/S 760 mmHg 11%
    16:00 +25°C° 0 mm 2 m/S 760 mmHg 12%
    17:00 +24°C° 0 mm 3 m/S 760 mmHg 12%
    18:00 +24°C° 0 mm 3 m/S 760 mmHg 12%
    19:00 +21°C° 0 mm 3 m/S 761 mmHg 22%
    20:00 +20°C° 0 mm 3 m/S 761 mmHg 33%
    21:00 +19°C° 0 mm 2 m/S 761 mmHg 43%
    22:00 +18°C° 0 mm 2 m/S 761 mmHg 49%
    23:00 +18°C° 0 mm 2 m/S 761 mmHg 54%

    übermorgen, 21 April, Sonntag

    Zeit Temperatur Niederschläge Wind Luftdruck Luftfeuchtigkeit
    00:00 +18°C° 0 mm 1 m/S 761 mmHg 59%
    01:00 +18°C° 0 mm 1 m/S 761 mmHg 60%
    02:00 +18°C° 0 mm 1 m/S 761 mmHg 60%
    03:00 +16°C° 0 mm 1 m/S 760 mmHg 61%
    04:00 +16°C° 0 mm 1 m/S 760 mmHg 61%
    05:00 +16°C° 0 mm 1 m/S 760 mmHg 60%
    06:00 +16°C° 0 mm 1 m/S 760 mmHg 60%
    07:00 +19°C° 0 mm 1 m/S 760 mmHg 58%
    08:00 +20°C° 0 mm 1 m/S 760 mmHg 57%
    09:00 +22°C° 0 mm 1 m/S 760 mmHg 55%
    10:00 +23°C° 0 mm 2 m/S 760 mmHg 52%
    11:00 +24°C° 0 mm 2 m/S 760 mmHg 49%
    12:00 +25°C° 0 mm 3 m/S 760 mmHg 47%
    13:00 +26°C° 0 mm 3 m/S 759 mmHg 44%
    14:00 +26°C° 0 mm 4 m/S 759 mmHg 41%
    15:00 +26°C° 0 mm 4 m/S 758 mmHg 39%
    16:00 +26°C° 0 mm 4 m/S 758 mmHg 42%
    17:00 +25°C° 0 mm 3 m/S 758 mmHg 45%
    18:00 +25°C° 0 mm 3 m/S 759 mmHg 48%
    19:00 +24°C° 0 mm 2 m/S 759 mmHg 52%
    20:00 +23°C° 0 mm 2 m/S 760 mmHg 55%
    21:00 +23°C° 0 mm 1 m/S 760 mmHg 58%
    22:00 +22°C° 0 mm 1 m/S 760 mmHg 59%
    23:00 +22°C° 0 mm 1 m/S 760 mmHg 60%

    22 April, Montag

    Zeit Temperatur Niederschläge Wind Luftdruck Luftfeuchtigkeit
    00:00 +21°C° 0 mm 1 m/S 760 mmHg 61%
    01:00 +21°C° 0 mm 1 m/S 760 mmHg 61%
    02:00 +20°C° 0 mm 1 m/S 760 mmHg 62%
    03:00 +20°C° 0 mm 1 m/S 760 mmHg 63%
    04:00 +19°C° 0 mm 1 m/S 760 mmHg 63%
    05:00 +18°C° 0 mm 2 m/S 761 mmHg 63%
    06:00 +18°C° 0 mm 2 m/S 761 mmHg 63%
    07:00 +19°C° 0 mm 2 m/S 761 mmHg 58%
    08:00 +20°C° 0 mm 2 m/S 761 mmHg 53%
    09:00 +21°C° 0 mm 2 m/S 761 mmHg 49%
    10:00 +24°C° 0 mm 2 m/S 761 mmHg 44%
    11:00 +25°C° 0 mm 2 m/S 761 mmHg 39%
    12:00 +27°C° 0 mm 1 m/S 760 mmHg 34%
    13:00 +28°C° 0 mm 1 m/S 760 mmHg 32%
    14:00 +28°C° 0 mm 1 m/S 760 mmHg 30%
    15:00 +29°C° 0 mm 2 m/S 759 mmHg 27%
    16:00 +28°C° 0 mm 2 m/S 760 mmHg 29%
    17:00 +28°C° 0 mm 2 m/S 760 mmHg 30%
    18:00 +27°C° 0 mm 2 m/S 760 mmHg 32%
    19:00 +26°C° 0 mm 1 m/S 761 mmHg 35%
    20:00 +25°C° 0 mm 1 m/S 761 mmHg 39%
    21:00 +24°C° 0 mm 1 m/S 762 mmHg 42%
    22:00 +23°C° 0 mm 1 m/S 762 mmHg 44%
    23:00 +22°C° 0 mm 1 m/S 762 mmHg 46%

    23 April, Dienstag

    Zeit Temperatur Niederschläge Wind Luftdruck Luftfeuchtigkeit
    00:00 +20°C° 0 mm 0 m/S 762 mmHg 48%
    01:00 +21°C° 0 mm 1 m/S 762 mmHg 50%
    02:00 +21°C° 0 mm 1 m/S 762 mmHg 52%
    03:00 +21°C° 0 mm 1 m/S 762 mmHg 54%
    04:00 +21°C° 0 mm 1 m/S 762 mmHg 55%
    05:00 +21°C° 0 mm 1 m/S 762 mmHg 55%
    06:00 +20°C° 0 mm 1 m/S 762 mmHg 56%
    07:00 +22°C° 0 mm 1 m/S 762 mmHg 53%
    08:00 +21°C° 0 mm 0 m/S 763 mmHg 49%
    09:00 +22°C° 0 mm 0 m/S 763 mmHg 46%
    10:00 +26°C° 0 mm 1 m/S 762 mmHg 43%
    11:00 +27°C° 0 mm 2 m/S 762 mmHg 40%
    12:00 +28°C° 0 mm 2 m/S 762 mmHg 37%
    13:00 +28°C° 0 mm 3 m/S 762 mmHg 38%
    14:00 +29°C° 0 mm 4 m/S 761 mmHg 40%
    15:00 +29°C° 0 mm 4 m/S 761 mmHg 41%
    16:00 +28°C° 0 mm 4 m/S 761 mmHg 45%
    17:00 +27°C° 0 mm 4 m/S 762 mmHg 49%
    18:00 +26°C° 0 mm 4 m/S 762 mmHg 54%
    19:00 +25°C° 0 mm 3 m/S 762 mmHg 58%
    20:00 +24°C° 0 mm 3 m/S 763 mmHg 62%
    21:00 +23°C° 0 mm 2 m/S 763 mmHg 66%
    22:00 +23°C° 0 mm 2 m/S 763 mmHg 68%
    23:00 +23°C° 0 mm 1 m/S 763 mmHg 69%

    24 April, Mittwoch

    Zeit Temperatur Niederschläge Wind Luftdruck Luftfeuchtigkeit
    00:00 +22°C° 0 mm 1 m/S 763 mmHg 71%
    01:00 +22°C° 0 mm 1 m/S 762 mmHg 72%
    02:00 +21°C° 0 mm 1 m/S 762 mmHg 74%
    03:00 +19°C° 0 mm 0 m/S 762 mmHg 75%
    04:00 +19°C° 0 mm 0 m/S 762 mmHg 75%
    05:00 +19°C° 0 mm 0 m/S 763 mmHg 75%
    06:00 +19°C° 0 mm 0 m/S 763 mmHg 75%
    07:00 +22°C° 0 mm 1 m/S 763 mmHg 68%
    08:00 +24°C° 0 mm 1 m/S 763 mmHg 62%
    09:00 +25°C° 0 mm 1 m/S 763 mmHg 56%
    10:00 +27°C° 0 mm 1 m/S 762 mmHg 50%
    11:00 +28°C° 0 mm 2 m/S 762 mmHg 45%
    12:00 +30°C° 0 mm 2 m/S 762 mmHg 40%
    13:00 +30°C° 0 mm 3 m/S 761 mmHg 40%
    14:00 +30°C° 0 mm 4 m/S 761 mmHg 40%
    15:00 +30°C° 0 mm 5 m/S 760 mmHg 41%
    16:00 +29°C° 0 mm 5 m/S 760 mmHg 41%
    17:00 +28°C° 0 mm 5 m/S 760 mmHg 42%
    18:00 +27°C° 0 mm 4 m/S 760 mmHg 42%
    19:00 +26°C° 0 mm 4 m/S 760 mmHg 46%
    20:00 +25°C° 0 mm 3 m/S 760 mmHg 50%
    21:00 +24°C° 0 mm 3 m/S 760 mmHg 53%
    22:00 +23°C° 0 mm 2 m/S 760 mmHg 56%
    23:00 +21°C° 0 mm 2 m/S 760 mmHg 59%
    Mehr zeigen